[[{"header":{"parameterUnit":"m.s-1","parameterCategory":1,"la1":30.2991,"la2":30.254,"lo1":-89.0895,"lo2":-89.0444,"dy":0.0017,"dx":0.0017,"nx":28,"ny":28,"refTime":"2024-07-22T09:00:00:Z","depth":0,"parameterNumber":2,"parameterNumberName":"U-component_of_WINDS"},"data":[0,0,0,0,0,0,0,0,0,0,0,0,0,0,0,0,0,0,0,0,0,0,0,0,0,0,0,0,0,0,0,0,0,0,0,0,0,0,0,0,0,0,0,0,0,0,0,0,0,0,0,0,0,0,0,0,0,0,-0.2155,-0.2154,0,-0.2124,-0.2123,-0.2123,-0.2115,-0.2115,-0.2116,-0.2116,-0.2083,-0.2082,-0.2081,0,0,0,0,0,0,0,0,0,0,0,0,0,-0.2206,-0.2205,-0.2155,-0.2154,-0.2154,-0.2124,-0.2123,-0.2123,-0.2115,-0.2115,-0.2116,-0.2116,-0.2083,-0.2082,-0.2081,0,0,0,0,0,0,0,0,0,0,0,0,0,-0.218,-0.2205,-0.2155,-0.2146,-0.2145,-0.2124,-0.2123,-0.2123,-0.2115,-0.2115,-0.2116,-0.2116,-0.2084,-0.2082,-0.208,-0.2065,0,0,-0.2076,-0.2075,0,0,0,0,0,0,0,0,-0.2182,-0.2178,-0.2148,-0.2147,-0.2146,-0.2124,-0.2129,-0.2103,-0.2115,-0.2127,-0.2116,-0.2116,-0.2096,-0.2093,-0.2087,-0.2063,-0.2062,-0.2075,-0.2074,-0.2074,-0.2073,0,0,0,0,0,0,0,-0.2183,-0.2179,-0.2142,-0.2148,-0.2146,-0.2144,-0.2141,-0.2124,-0.211,-0.2126,-0.2125,-0.2121,-0.2095,-0.2089,-0.2086,-0.2061,-0.2075,-0.2074,-0.2073,-0.2072,-0.2023,-0.2022,0,0,0,0,0,0,-0.2187,-0.2181,-0.2143,-0.2142,-0.2165,-0.2143,-0.2139,-0.213,-0.211,-0.2107,-0.2121,-0.2121,-0.2091,-0.2088,-0.2085,-0.2065,-0.2074,-0.2072,-0.2071,-0.2023,-0.2023,-0.2022,0,0,0,0,0,0,-0.2188,-0.2183,-0.2145,-0.2161,-0.2156,-0.2142,-0.2132,-0.213,-0.2123,-0.2107,-0.2104,-0.2117,-0.2091,-0.2087,-0.207,-0.2064,-0.2072,-0.207,-0.2024,-0.2023,-0.2022,-0.2026,0,0,0,0,0,0,-0.2189,-0.2184,-0.2178,-0.2161,-0.2155,-0.2131,-0.2132,-0.2129,-0.212,-0.212,-0.2102,-0.2099,-0.2091,-0.2072,-0.2068,-0.2062,-0.2069,-0.2024,-0.2023,-0.2023,-0.2026,-0.2026,-0.2025,0,0,0,0,0,-0.2191,-0.218,-0.2178,-0.2173,-0.2148,-0.213,-0.2127,-0.2118,-0.212,-0.2114,-0.2103,-0.21,-0.2065,-0.2071,-0.2066,-0.2059,-0.2024,-0.2023,-0.2023,-0.2027,-0.2026,-0.2025,0,0,0,0,0,0,-0.2196,-0.2178,-0.2175,-0.2158,-0.2146,-0.2129,-0.2121,-0.2117,-0.2104,-0.2104,-0.2093,-0.2089,-0.2073,-0.2064,-0.207,-0.2043,-0.2045,-0.2043,-0.2049,-0.2048,-0.2048,-0.205,-0.2068,0,0,0,0,0,-0.2196,-0.2184,-0.2168,-0.2154,-0.2148,-0.2136,-0.2128,-0.2122,-0.2109,-0.2103,-0.2092,-0.2079,-0.2065,-0.2056,-0.2042,-0.2025,-0.2021,-0.2018,-0.2017,-0.2017,-0.2016,-0.2006,-0.2004,-0.202,-0.202,-0.202,0,0,-0.2194,-0.2182,-0.2175,-0.2155,-0.2145,-0.2132,-0.2131,-0.2118,-0.2109,-0.2101,-0.2085,-0.2076,-0.206,-0.2043,-0.2034,-0.2035,-0.201,-0.2016,-0.2016,-0.2015,-0.2005,-0.2003,-0.2002,-0.2019,-0.2019,-0.2019,0,0,-0.2184,-0.2174,-0.2162,-0.2152,-0.2137,-0.2129,-0.2126,-0.2109,-0.2103,-0.2086,-0.2081,-0.2069,-0.2045,-0.2034,-0.2026,-0.2012,-0.2008,-0.2008,-0.2005,-0.1995,-0.1994,-0.1993,-0.1988,-0.1987,-0.2006,-0.2006,-0.2006,0,-0.2184,-0.2165,-0.2156,-0.2143,-0.2135,-0.2128,-0.2115,-0.2106,-0.2087,-0.2081,-0.2081,-0.2052,-0.2041,-0.2021,-0.2018,-0.2011,-0.2007,-0.201,-0.1995,-0.1994,-0.1992,-0.1988,-0.1986,-0.2006,-0.2006,-0.2006,-0.2006,0,-0.2166,-0.2153,-0.2145,-0.2127,-0.2117,-0.2105,-0.2093,-0.2084,-0.2079,-0.2071,-0.2053,-0.204,-0.2024,-0.2018,-0.2013,-0.1998,-0.1998,-0.1997,-0.1999,-0.1991,-0.1987,-0.1985,-0.2007,-0.2006,-0.2006,-0.2006,0,0,-0.2159,-0.2137,-0.2134,-0.2126,-0.2109,-0.2098,-0.2085,-0.2069,-0.2062,-0.2049,-0.2038,-0.2018,-0.2016,-0.2007,-0.2,-0.1992,-0.1982,-0.1991,-0.1991,-0.199,-0.1964,-0.1966,-0.1964,-0.1979,-0.1979,-0.1978,-0.1965,0,-0.2148,-0.2125,-0.2116,-0.2097,-0.2085,-0.2078,-0.2067,-0.2054,-0.2046,-0.2034,-0.2024,-0.2011,-0.201,-0.2004,-0.1995,-0.1985,-0.1976,-0.1985,-0.1968,-0.1968,-0.1973,-0.1961,-0.1963,-0.1952,-0.1964,-0.1963,-0.1963,0,-0.2132,-0.2119,-0.2099,-0.2084,-0.2078,-0.2068,-0.2053,-0.2042,-0.2028,-0.2022,-0.2011,-0.2005,-0.199,-0.1993,-0.1972,-0.1979,-0.1971,-0.1965,-0.1964,-0.1962,-0.1965,-0.196,-0.1948,-0.1946,-0.196,-0.196,-0.1961,0,-0.213,-0.2108,-0.2093,-0.2086,-0.2067,-0.206,-0.2052,-0.2038,-0.2029,-0.2016,-0.201,-0.1995,-0.1987,-0.1975,-0.1964,-0.1967,-0.1945,-0.1946,-0.194,-0.194,-0.1936,-0.1937,-0.1923,-0.193,-0.193,-0.193,-0.193,0,-0.2119,-0.2107,-0.2092,-0.2083,-0.2069,-0.2059,-0.2045,-0.2036,-0.2024,-0.2013,-0.2006,-0.1995,-0.1982,-0.1969,-0.1961,-0.1946,-0.1942,-0.1937,-0.1935,-0.1938,-0.1938,-0.1933,-0.1933,-0.193,-0.193,-0.193,-0.193,0,-0.2114,-0.2104,-0.2087,-0.2071,-0.2066,-0.2057,-0.2043,-0.2033,-0.2024,-0.201,-0.2006,-0.1992,-0.1977,-0.1966,-0.1946,-0.194,-0.1924,-0.1921,-0.1929,-0.1928,-0.1922,-0.1923,-0.1905,-0.1902,-0.1911,-0.1911,-0.1911,0,-0.2108,-0.2099,-0.2082,-0.2074,-0.2066,-0.2053,-0.2044,-0.2033,-0.2024,-0.2008,-0.2,-0.1985,-0.1972,-0.1948,-0.1936,-0.1921,-0.1918,-0.1913,-0.1916,-0.1919,-0.1918,-0.1919,-0.1918,-0.1913,-0.1913,-0.1913,-0.1912,0,-0.2098,-0.2094,-0.2082,-0.2067,-0.2057,-0.2045,-0.2033,-0.2027,-0.2014,-0.2004,-0.1989,-0.1979,-0.1959,-0.1944,-0.1928,-0.1918,-0.1913,-0.1912,-0.1909,-0.1913,-0.1918,-0.1915,-0.1928,-0.1912,-0.1912,-0.1912,-0.1912,-0.1912,-0.2093,-0.2085,-0.2071,-0.2058,-0.2048,-0.2037,-0.2028,-0.2017,-0.2005,-0.1988,-0.1982,-0.1967,-0.1953,-0.193,-0.1921,-0.1908,-0.1908,-0.1904,-0.1903,-0.1903,-0.1903,-0.1919,-0.1905,-0.1905,-0.1905,-0.1905,-0.1905,0,-0.2084,-0.2075,-0.2062,-0.2046,-0.2036,-0.2032,-0.2018,-0.201,-0.1996,-0.1984,-0.1971,-0.1954,-0.1939,-0.1925,-0.1909,-0.1902,-0.1899,-0.1898,-0.1899,-0.1897,-0.1904,-0.1908,-0.1901,-0.1901,-0.1901,-0.1901,-0.1901,-0.1901,-0.2078,-0.2063,-0.2057,-0.2037,-0.2028,-0.2013,-0.2006,-0.1996,-0.1985,-0.1967,-0.1954,-0.1946,-0.1932,-0.1916,-0.1902,-0.1898,-0.1893,-0.1892,-0.1888,-0.1896,-0.1896,-0.1897,-0.19,-0.1891,-0.1891,-0.1881,-0.1881,-0.1881]},{"header":{"parameterUnit":"m.s-1","parameterCategory":1,"la1":30.2991,"la2":30.254,"lo1":-89.0895,"lo2":-89.0444,"dy":0.0017,"dx":0.0017,"nx":28,"ny":28,"refTime":"2024-07-22T09:00:00:Z","depth":0,"parameterNumber":3,"parameterNumberName":"V-component_of_WINDS"},"data":[0,0,0,0,0,0,0,0,0,0,0,0,0,0,0,0,0,0,0,0,0,0,0,0,0,0,0,0,0,0,0,0,0,0,0,0,0,0,0,0,0,0,0,0,0,0,0,0,0,0,0,0,0,0,0,0,0,0,3.0193,3.0193,0,3.0211,3.0211,3.0211,3.0177,3.0175,3.0174,3.0173,3.019,3.0192,3.0193,0,0,0,0,0,0,0,0,0,0,0,0,0,3.0125,3.0127,3.0193,3.0193,3.0193,3.0211,3.0211,3.0211,3.0177,3.0175,3.0174,3.0173,3.019,3.0192,3.0194,0,0,0,0,0,0,0,0,0,0,0,0,0,3.015,3.0127,3.0193,3.0178,3.0177,3.0211,3.0211,3.0211,3.0177,3.0175,3.0174,3.0172,3.0189,3.0192,3.0194,3.0242,0,0,3.0201,3.0202,0,0,0,0,0,0,0,0,3.0149,3.0153,3.018,3.0179,3.0178,3.019,3.0193,3.0222,3.0177,3.0177,3.0173,3.0171,3.0191,3.0193,3.0201,3.0243,3.0244,3.0201,3.0202,3.0203,3.0204,0,0,0,0,0,0,0,3.0147,3.0152,3.02,3.018,3.0179,3.017,3.0171,3.0199,3.0194,3.0177,3.0174,3.0177,3.0191,3.0198,3.0201,3.0244,3.0201,3.0203,3.0204,3.0205,3.0323,3.0325,0,0,0,0,0,0,3.0147,3.015,3.0199,3.02,3.0159,3.0172,3.0174,3.0188,3.0193,3.0192,3.0179,3.0175,3.0195,3.0198,3.0201,3.0255,3.0203,3.0205,3.0207,3.0322,3.0324,3.0326,0,0,0,0,0,0,3.0146,3.0152,3.0198,3.0175,3.018,3.0175,3.0191,3.0189,3.0197,3.0194,3.0193,3.0188,3.0194,3.0198,3.0231,3.0256,3.0206,3.0209,3.032,3.0322,3.0325,3.0366,0,0,0,0,0,0,3.0144,3.0152,3.0171,3.0175,3.0181,3.0229,3.0192,3.019,3.0201,3.0197,3.0203,3.0202,3.0193,3.0228,3.0234,3.0258,3.021,3.0317,3.0321,3.0324,3.0362,3.037,3.0376,0,0,0,0,0,3.0142,3.0182,3.0172,3.0178,3.0205,3.0231,3.0234,3.0224,3.0203,3.0221,3.0219,3.0202,3.0253,3.0232,3.0238,3.0263,3.0316,3.032,3.0324,3.0359,3.0368,3.0376,0,0,0,0,0,0,3.0181,3.0183,3.0171,3.0215,3.0223,3.0225,3.0248,3.0234,3.0248,3.0244,3.0229,3.0231,3.0266,3.0269,3.0246,3.0308,3.028,3.0286,3.0306,3.0314,3.0321,3.0318,3.0212,0,0,0,0,0,3.0195,3.0216,3.0216,3.0254,3.0259,3.0253,3.0264,3.0255,3.0263,3.0266,3.0267,3.0274,3.0291,3.0303,3.032,3.0363,3.0362,3.0383,3.039,3.0396,3.0399,3.042,3.0428,3.0339,3.0339,3.0339,0,0,3.0223,3.0227,3.0241,3.0262,3.0268,3.0288,3.0256,3.0281,3.0295,3.0269,3.03,3.0301,3.0309,3.0347,3.0363,3.0349,3.0424,3.0401,3.0405,3.0406,3.0425,3.0433,3.044,3.0341,3.0341,3.034,0,0,3.0285,3.0291,3.0322,3.0327,3.0336,3.0331,3.0338,3.0343,3.0342,3.0373,3.0353,3.037,3.0401,3.0406,3.0413,3.0475,3.0458,3.0481,3.0515,3.0535,3.0542,3.0548,3.0567,3.0575,3.0485,3.0485,3.0486,0,3.0319,3.0351,3.0339,3.0364,3.0373,3.035,3.038,3.0386,3.0399,3.0405,3.0389,3.0426,3.043,3.0467,3.0482,3.0489,3.0495,3.0479,3.0542,3.0548,3.0554,3.0572,3.0579,3.0488,3.0488,3.0487,3.0487,0,3.039,3.0412,3.0436,3.0448,3.046,3.0487,3.0479,3.0492,3.0481,3.0478,3.0508,3.0512,3.0527,3.0536,3.0527,3.0571,3.0562,3.0545,3.0516,3.0565,3.0581,3.0588,3.0491,3.0491,3.049,3.0489,0,0,3.0477,3.0481,3.049,3.0494,3.0501,3.0517,3.0542,3.0557,3.0567,3.0577,3.0596,3.0622,3.0605,3.0613,3.0604,3.0622,3.0667,3.0602,3.0602,3.0611,3.0713,3.0724,3.0732,3.0657,3.0658,3.0659,3.0711,0,3.0536,3.0579,3.0569,3.0611,3.063,3.0608,3.063,3.0635,3.0633,3.0647,3.0644,3.0662,3.064,3.0644,3.0661,3.0658,3.0686,3.0654,3.0672,3.0673,3.0668,3.0741,3.0753,3.0802,3.0718,3.0719,3.072,0,3.061,3.0621,3.0665,3.0666,3.0673,3.0693,3.0704,3.0719,3.0725,3.0721,3.0729,3.0716,3.0739,3.0712,3.0743,3.0721,3.0728,3.0728,3.0729,3.0728,3.0698,3.0739,3.0818,3.0824,3.073,3.073,3.0729,0,3.0665,3.0691,3.072,3.0724,3.0727,3.0741,3.0743,3.0746,3.0755,3.0765,3.077,3.0783,3.0789,3.0799,3.0789,3.077,3.082,3.0793,3.0816,3.0816,3.0826,3.0825,3.0903,3.0835,3.0835,3.0835,3.0834,0,3.073,3.0757,3.0744,3.0761,3.079,3.0778,3.0807,3.0806,3.0809,3.0825,3.0808,3.0823,3.0811,3.0824,3.0817,3.0842,3.0846,3.0842,3.084,3.0842,3.0842,3.0845,3.084,3.0837,3.0836,3.0836,3.0835,0,3.0795,3.0788,3.0817,3.0817,3.0817,3.0838,3.0838,3.0853,3.0849,3.0869,3.0873,3.0866,3.0882,3.0873,3.0889,3.0884,3.0916,3.091,3.0914,3.0911,3.0934,3.0931,3.1015,3.1024,3.0952,3.0953,3.0953,0,3.0835,3.0855,3.0857,3.0866,3.0868,3.0884,3.0892,3.088,3.0889,3.0896,3.091,3.0924,3.0934,3.0959,3.0955,3.0966,3.0959,3.0987,3.096,3.0962,3.0956,3.0953,3.0954,3.0992,3.0993,3.0994,3.0994,0,3.0907,3.0902,3.0914,3.0925,3.0935,3.0943,3.095,3.0958,3.0946,3.0957,3.0972,3.098,3.0995,3.1008,3.1018,3.1019,3.1004,3.1003,3.1008,3.101,3.101,3.1007,3.0925,3.1001,3.1,3.0999,3.0999,3.0999,3.0959,3.0974,3.0977,3.0991,3.0994,3.1,3.1013,3.1011,3.1023,3.1034,3.1027,3.1044,3.1046,3.1058,3.106,3.1073,3.1061,3.107,3.1071,3.1073,3.1075,3.1011,3.1075,3.1075,3.1074,3.1074,3.1074,0,3.1027,3.1027,3.104,3.1049,3.1059,3.1045,3.1051,3.106,3.1075,3.1079,3.1089,3.1105,3.1117,3.1114,3.1124,3.1134,3.1128,3.1137,3.1135,3.1135,3.1086,3.1079,3.1142,3.1142,3.1142,3.1142,3.1142,3.1142,3.1063,3.1088,3.1083,3.1108,3.1108,3.1124,3.1128,3.1133,3.1136,3.1154,3.1164,3.1161,3.1162,3.1172,3.1182,3.1181,3.1184,3.1196,3.1192,3.1146,3.1139,3.1132,3.1125,3.1197,3.1197,3.1239,3.1239,3.124]}]]